Location: Unspecified
(41.1850°N, 73.2650°W)
Time: 05:13:54
(UTC+00:00)

Cosmos 2227 Rocket - Pass Details

Date: 14 December 2025
Orbit: 838 x 843 km, 71.0° (Epoch: 13 January)

Event Time Altitude Azimuth Distance (km) Brightness Sun altitude
Rises 22:57:33 0° 327° (NNW) 3,400 5.6 -16.8°
Reaches altitude 10° 23:00:10 10° 319° (NW) 2,462 4.9 -17.3°
Maximum altitude 23:05:14 35° 255° (WSW) 1,321 3.9 -18.2°
Drops below altitude 10° 23:10:18 10° 191° (S) 2,451 4.9 -19.1°
Sets 23:12:54 0° 183° (S) 3,382 5.6 -19.6°
